Regional Weather Roundup
Issued by NWS Burlington, VT

Home | Current Version | Previous Version | Text Only | Print | Product List | Glossary On
Versions: 1 2 3 4 5 6 7 8 9 10 11 12 13 14 15 16 17 18 19 20 21 22 23 24 25 26 27 28 29 30 31 32 33 34 35 36 37 38 39 40 41 42 43 44 45 46 47 48 49 50
000
ASUS41 KBTV 300030
RWRBTV
VERMONT REGIONAL WEATHER ROUNDUP
NATIONAL WEATHER SERVICE BURLINGTON VT
800 PM EDT SAT AUG 29 2015

NOTE: "FAIR" INDICATES FEW OR NO CLOUDS BELOW 12,000 FEET WITH NO
SIGNIFICANT WEATHER AND/OR OBSTRUCTIONS TO VISIBILITY.

* THESE REPORTS ARE NOT UNDER NWS QUALITY CONTROL AND/OR DO NOT
  REPORT WEATHER SUCH AS PRECIPITATION AND FOG.

VTZ001>019-300100-
_____VERMONT_____


CITY           SKY/WX    TMP DP  RH WIND       PRES   REMARKS
BURLINGTON     CLOUDY    73  58  59 CALM      30.05S
6HR MIN TEMP:  73; 6HR MAX TEMP:  79;

MONTPELIER     MOCLDY    65  59  81 CALM      30.12S
6HR MIN TEMP:  64; 6HR MAX TEMP:  75;

MORRISVILLE    MOCLDY    68  60  75 CALM      30.08F
6HR MIN TEMP:  67; 6HR MAX TEMP:  77;

ST. JOHNSBURY*   N/A     68  60  75 MISG      30.06S
6HR MIN TEMP:  67; 6HR MAX TEMP:  77;

LYNDONVILLE*   FAIR      65  58  79 CALM      30.11S
6HR MIN TEMP:  66; 6HR MAX TEMP:  73;

MIDDLEBURY*    FAIR      72  58  60 S3        30.07R
6HR MIN TEMP:  71; 6HR MAX TEMP:  80;

RUTLAND*       PTCLDY    66  57  72 CALM      30.12S
6HR MIN TEMP:  66; 6HR MAX TEMP:  75;

SPRINGFIELD    MOCLDY    68  60  75 CALM      30.10R
6HR MIN TEMP:  68; 6HR MAX TEMP:  79;

HIGHGATE*      FAIR      66  64  91 CALM      30.06R FOG
6HR MIN TEMP:  67; 6HR MAX TEMP:  75;

NEWPORT*       FAIR      64  60  87 CALM      30.09S
6HR MIN TEMP:  64; 6HR MAX TEMP:  71;

BENNINGTON     MOCLDY    65  61  87 CALM      30.10S
6HR MIN TEMP:  65; 6HR MAX TEMP:  78;

SUTTON*          N/A     61 N/A N/A MISG        N/A
MT. MANSFIELD*   N/A     57 N/A N/A W9          N/A

_____LAKE CHAMPLAIN_____


CITY           SKY/WX    TMP DP  RH WIND       PRES   REMARKS
COLCHESTER RF*   N/A     73  64  73 NE7         N/A
DIAMOND ISL*     N/A     75  63  64 S2          N/A

$$

NYZ007-026>031-035-052-083-300100-
_____NORTHERN NEW YORK_____


CITY           SKY/WX    TMP DP  RH WIND       PRES   REMARKS
PLATTSBURGH    CLOUDY    68  62  81 NW3       30.05S
6HR MIN TEMP:  68; 6HR MAX TEMP:  77;

SARANAC LAKE   CLOUDY    66  56  70 W5        30.11R
6HR MIN TEMP:  66; 6HR MAX TEMP:  74;

MASSENA        CLOUDY    68  60  75 SW5       30.08S
6HR MIN TEMP:  68; 6HR MAX TEMP:  75; 6HR PCP: TRACE;

OGDENSBURG*    CLEAR     66  63  88 CALM      30.08S
POTSDAM*       CLEAR     64  63  94 CALM      30.09S
WATERTOWN      MOCLDY    67  61  81 S3        30.10R
6HR MIN TEMP:  67; 6HR MAX TEMP:  76;

FT DRUM        CLOUDY    67  60  80 SW5       30.10S
6HR MIN TEMP:  67; 6HR MAX TEMP:  77;

ALBANY         MOCLDY    74  60  61 SE3       30.08R
6HR MIN TEMP:  73; 6HR MAX TEMP:  80;

GLENS FALLS    CLOUDY    73  60  63 S6        30.07R
6HR MIN TEMP:  73; 6HR MAX TEMP:  81;


$$
NHZ002-005-011-300100-
_____NEW HAMPSHIRE_____


CITY           SKY/WX    TMP DP  RH WIND       PRES   REMARKS
LEBANON        MOCLDY    65  60  84 S3        30.08R
6HR MIN TEMP:  65; 6HR MAX TEMP:  80;

KEENE          MOCLDY    64  57  77 CALM      30.11R
6HR MIN TEMP:  66; 6HR MAX TEMP:  77;

MT WASHINGTON  FOG       46  46 100 W32         N/A  VSB 1/8
6HR MIN TEMP:  47; 6HR MAX TEMP:  57;

PLYMOUTH       FAIR      64  61  91 CALM      30.08R
6HR MIN TEMP:  65; 6HR MAX TEMP:  78;

WHITEFIELD     MOCLDY    65  60  84 CALM      30.09S
6HR MIN TEMP:  65; 6HR MAX TEMP:  76;


$$

_____REGIONAL QUEBEC LOCATIONS_____


CITY           SKY/WX    TMP DP  RH WIND       PRES   REMARKS
MONTREAL       LGT RAIN  72  63  73 SW12      30.04S
QUEBEC CITY    CLOUDY    66  61  82 SW7       30.01S
SHERBROOKE     PTCLDY    64  59  82 S5        30.07S

_____REGIONAL ONTARIO LOCATIONS_____


CITY           SKY/WX    TMP DP  RH WIND       PRES   REMARKS
OTTAWA         LGT RAIN  64  63  94 SW5       30.07S

______KEY______
VSB  - VISIBILITY IN MILES
WCI  - WIND CHILL INDEX
HX   - HEAT INDEX
$$
NNNN


USA.gov is the U.S. government's official web portal to all federal, state and local government web resources and services.